User: anonymous   Login
Location: *
(51.1248°S, 108.4023°W)
Time: 15:38:56
(UTC+00:00)
Language:

Okean-O - Orbit

View from above orbital plane
View from above orbital plane
View from above satellite
View from above satellite

Ground track
Ground track

The orbit data is extracted from the following two-line orbital elements,

1 25860U 99039A   21264.81392004  .00000068  00000-0  17307-4 0  9999
2 25860  98.1763 296.8463 0001353 114.8217 245.3133 14.76761600193609
Epoch (UTC): 21 September 2021 19:32:02
Eccentricity: 0.0001353
inclination: 98.1763°
perigee height: 638 km
apogee height: 640 km
right ascension of ascending node: 296.8463°
argument of perigee: 114.8217°
revolutions per day: 14.76761600
mean anomaly at epoch: 245.3133°
orbit number at epoch: 19360

The dashed part of the orbit path shows where the satellite is in the earth's shadow,  

DLR